Flag for Germany Weather past 2 weeks in Troisdorf, North Rhine-Westphalia, Germany

Now
54 °F

Clear.


Feels Like: 50 °F
Forecast: 51 / 63 °F
Wind: 12 mph from Southwest

Location: Koeln / Bonn

Current Time: May 7, 2015 at 12:36:02 AM

Latest Report: May 6, 2015 at 11:50 PM


Visibility: 10 mi

Pressure: 29.98 "Hg

Humidity: 63%

Dew point: 41 °F

Location of TroisdorfLocation

Historic Weather in Troisdorf — Graph

°F

Troisdorf temperature yesterday

Maximum temperature yesterday: 64 °F (at 1:20 PM)
Minimum temperature yesterday: 48 °F (at 5:50 AM)
Average temperature yesterday: 56 °F

Past Weeks' High & Low Weather Summary

 TemperatureHumidityPressure
High73 °F (May 5, 12:20 PM)100% (Apr 23, 7:20 AM)30.42 "Hg (Apr 23, 7:20 AM)
Low30 °F (Apr 29, 3:50 AM)22% (Apr 24, 5:20 PM)29.47 "Hg (May 5, 3:50 AM)
Average53 °F70%29.87 "Hg
* Reported Apr 21 11:20 PM — May 6 11:20 PM, Troisdorf, Weather by CustomWeather, © 2015

Note: Actual official high and low records may vary slightly from our data, if they occured in-between our weather recording intervals... More about our weather records

Advertising

Troisdorf weather history for previous 24 hours

 ConditionsComfort  
Time TempWeatherWind HumidityBarometerVisibility
11:20 PM
Wed, May 6
54 °FClear.13 mph63%29.98 "Hg10 mi
10:20 PM54 °FClear.7 mph58%29.95 "Hg10 mi
9:50 PM55 °FScattered clouds.13 mph55%29.95 "HgN/A
9:20 PM57 °FScattered showers. Scattered clouds.12 mph51%29.95 "HgN/A
8:50 PM57 °FScattered clouds.12 mph55%29.92 "HgN/A
8:20 PM59 °FSunny.10 mph48%29.92 "Hg10 mi
7:50 PM59 °FScattered clouds.13 mph48%29.92 "HgN/A
7:20 PM61 °FScattered clouds.16 mph48%29.89 "HgN/A
6:50 PM61 °FScattered clouds.17 mph48%29.89 "HgN/A
6:20 PM61 °FScattered clouds.16 mph48%29.89 "HgN/A
5:50 PM61 °FPartly sunny.7 mph63%29.89 "HgN/A
5:20 PM57 °FPartly sunny.6 mph63%29.89 "HgN/A
4:50 PM54 °FSprinkles. Partly sunny.18 mph82%29.92 "HgN/A
4:20 PM57 °FScattered showers. Partly sunny.9 mph67%29.89 "HgN/A
3:50 PM55 °FScattered showers. Partly sunny.12 mph82%29.89 "HgN/A
3:20 PM61 °FSprinkles. Partly sunny.16 mph39%29.86 "HgN/A
2:50 PM63 °FScattered showers. Partly sunny.16 mph39%29.86 "HgN/A
2:20 PM63 °FSunny.18 mph39%29.86 "Hg10 mi
1:50 PM63 °FSunny.15 mph42%29.89 "Hg10 mi
1:20 PM64 °FSunny.20 mph37%29.89 "Hg10 mi
12:50 PM61 °FSunny.16 mph42%29.89 "Hg10 mi
12:20 PM61 °FSunny.17 mph45%29.89 "Hg10 mi
11:50 AM61 °FSunny.18 mph36%29.92 "Hg10 mi
11:20 AM61 °FSunny.17 mph45%29.92 "Hg10 mi
10:50 AM59 °FScattered clouds.15 mph48%29.89 "HgN/A
10:20 AM59 °FPassing clouds.16 mph51%29.92 "HgN/A
9:50 AM57 °FPassing clouds.16 mph55%29.92 "HgN/A
9:20 AM57 °FPassing clouds.14 mph59%29.92 "HgN/A
8:50 AM55 °FPassing clouds.14 mph59%29.92 "HgN/A
8:20 AM55 °FPassing clouds.10 mph63%29.92 "HgN/A
7:50 AM54 °FSunny.9 mph67%29.89 "Hg10 mi
7:20 AM52 °FSunny.8 mph77%29.89 "Hg10 mi
6:50 AM48 °FClear.9 mph82%29.89 "Hg10 mi
6:20 AM48 °FClear.8 mph76%29.89 "Hg10 mi
5:50 AM48 °FClear.7 mph76%29.86 "Hg10 mi
5:20 AM50 °FClear.7 mph76%29.86 "Hg10 mi
4:50 AM54 °FClear.7 mph67%29.86 "Hg10 mi
4:20 AM52 °FClear.7 mph72%29.86 "Hg10 mi
3:50 AM52 °FClear.8 mph72%29.86 "Hg10 mi
3:20 AM52 °FClear.8 mph72%29.86 "Hg10 mi
2:50 AM52 °FClear.9 mph72%29.86 "Hg10 mi
2:20 AM54 °FClear.9 mph72%29.86 "Hg10 mi
1:50 AM54 °FClear.9 mph72%29.86 "Hg10 mi
1:20 AM52 °FClear.10 mph77%29.86 "Hg10 mi
12:50 AM54 °FClear.9 mph67%29.83 "Hg10 mi
12:20 AM55 °FClear.9 mph63%29.83 "Hg10 mi
Weather by CustomWeather, © 2015

See weather overviewHow to use our weather pages